Volver al catálogo

YAOGAN 20C

ActivoMilitarLEO
NORAD 40111·PAYLOAD·🇨🇳 China

Lanzado Aug 9, 2014 desde Jiuquan Satellite Launch Center

Loading…

Próximos Pases (próximas 24 horas)

TLE

ActualizadoSource: Space-Track

Época: Sep 14, 2026, 23:43 UTC

1 40111U 14047C   26257.98823412 -.00000106  00000-0 -15712-4 0  9991
2 40111  63.3771 148.1405 0397957  15.5917 345.6960 13.45455710594373

Sigue YAOGAN 20C en tiempo real con AllMySat

Download on the App Store